This demonstration page uses our WeatherBlox Daily Observations layout. Learn more.

Left ArrowRight Arrow

Hourly Observations for October 21, 2021

Temp ( °F °C ) Dew Point ( °F °C ) Humidity (%) Winds ( mph kmh ) Pressure ( in mb ) Visibility ( mi km ) Precip ( " mm )
12:15 am 00:15 Clear 59 15 52 11 77 77 S 6 9 30.02 1017 10 16 N/A
12:35 am 00:35 Clear 59 15 52 11 77 77 S 7 11 30.00 1016 10 16 N/A
12:55 am 00:55 Clear 57 14 52 11 82 82 S 7 11 30.01 1016 10 16 N/A
1:15 am 01:15 Clear 57 14 52 11 82 82 SSE 6 9 30.00 1016 10 16 N/A
1:35 am 01:35 Clear 57 14 52 11 82 82 S 7 11 30.00 1016 10 16 N/A
1:55 am 01:55 Partly Cloudy 57 14 52 11 82 82 S 6 9 29.99 1015 10 16 N/A
2:15 am 02:15 Partly Cloudy 57 14 52 11 82 82 S 7 11 29.98 1015 10 16 N/A
2:35 am 02:35 Mostly Cloudy 57 14 52 11 82 82 S 8 13 29.97 1015 10 16 N/A
2:55 am 02:55 Mostly Cloudy 57 14 52 11 82 82 S 6 9 29.97 1015 10 16 N/A
3:15 am 03:15 Mostly Cloudy 57 14 54 12 88 88 S 5 7 29.97 1015 10 16 N/A
3:35 am 03:35 Cloudy 57 14 54 12 88 88 S 7 11 29.96 1014 10 16 N/A
3:55 am 03:55 Cloudy 59 15 54 12 82 82 S 9 15 29.93 1014 10 16 N/A
4:15 am 04:15 Cloudy 59 15 55 13 88 88 S 9 15 29.92 1013 10 16 N/A
4:35 am 04:35 Cloudy 59 15 55 13 88 88 S 9 15 29.91 1013 10 16 N/A
4:55 am 04:55 Partly Cloudy 59 15 55 13 88 88 S 8 13 29.91 1013 10 16 N/A
5:15 am 05:15 Partly Cloudy 59 15 57 14 94 94 S 8 13 29.91 1013 10 16 N/A
5:35 am 05:35 Mostly Cloudy 59 15 57 14 94 94 S 7 11 29.91 1013 10 16 N/A
5:55 am 05:55 Cloudy 59 15 57 14 94 94 S 8 13 29.90 1013 10 16 N/A
6:15 am 06:15 Cloudy 57 14 57 14 100 100 S 7 11 29.92 1013 5 8 N/A
6:35 am 06:35 Cloudy 57 14 57 14 100 100 S 7 11 29.92 1013 10 16 N/A
6:55 am 06:55 Cloudy 57 14 57 14 100 100 S 8 13 29.91 1013 10 16 N/A
7:15 am 07:15 Cloudy 57 14 57 14 100 100 S 6 9 29.91 1013 10 16 N/A
7:35 am 07:35 Cloudy 57 14 57 14 100 100 SSW 7 11 29.91 1013 10 16 N/A
7:55 am 07:55 Cloudy 59 15 59 15 100 100 S 5 7 29.90 1013 10 16 N/A
8:15 am 08:15 Cloudy 59 15 59 15 100 100 S 5 7 29.90 1013 10 16 N/A
8:35 am 08:35 Cloudy 59 15 59 15 100 100 S 6 9 29.89 1012 10 16 N/A
8:55 am 08:55 Cloudy 61 16 61 16 100 100 SSW 8 13 29.90 1013 10 16 N/A
9:15 am 09:15 Cloudy 61 16 61 16 100 100 SW 9 15 29.90 1013 10 16 N/A
9:35 am 09:35 Cloudy 61 16 61 16 100 100 SW 10 17 29.90 1013 10 16 N/A
9:55 am 09:55 Mostly Cloudy 63 17 61 16 94 94 SW 7 11 29.89 1012 10 16 N/A
10:15 am 10:15 Mostly Cloudy 63 17 61 16 94 94 WSW 13 20 29.90 1012 10 16 N/A
10:35 am 10:35 Cloudy 63 17 57 14 83 83 W 21 33 29.90 1012 10 16 N/A
10:55 am 10:55 Mostly Cloudy 63 17 55 13 77 77 W 16 26 29.90 1012 10 16 N/A
11:15 am 11:15 Mostly Cloudy 63 17 54 12 73 73 W 16 26 29.90 1012 10 16 N/A
11:35 am 11:35 Partly Cloudy 63 17 48 9 59 59 WSW 17 28 29.90 1012 10 16 N/A
11:55 am 11:55 Sunny 63 17 48 9 59 59 W 20 31 29.91 1013 10 16 N/A
12:15 pm 12:15 Partly Cloudy 63 17 48 9 59 59 W 18 30 29.91 1013 10 16 N/A
12:35 pm 12:35 Partly Cloudy 63 17 48 9 59 59 WSW 16 26 29.91 1013 10 16 N/A
12:55 pm 12:55 Mostly Cloudy 63 17 46 8 56 56 W 21 33 29.91 1013 10 16 N/A
1:15 pm 13:15 Partly Cloudy 61 16 46 8 59 59 WSW 16 26 29.91 1013 10 16 N/A
1:35 pm 13:35 Mostly Cloudy 59 15 46 8 63 63 WSW 17 28 29.92 1013 10 16 N/A
1:55 pm 13:55 Cloudy 59 15 46 8 63 63 W 20 31 29.92 1013 10 16 N/A
2:15 pm 14:15 Cloudy 57 14 46 8 67 67 W 17 28 29.94 1014 10 16 N/A
2:35 pm 14:35 Cloudy 57 14 46 8 67 67 W 20 31 29.94 1014 10 16 N/A
2:55 pm 14:55 Cloudy 57 14 46 8 67 67 W 17 28 29.94 1014 10 16 N/A
3:15 pm 15:15 Cloudy 55 13 46 8 72 72 W 18 30 29.95 1014 10 16 N/A
3:35 pm 15:35 Cloudy 55 13 46 8 72 72 W 18 30 29.95 1014 10 16 N/A
3:55 pm 15:55 Cloudy 54 12 46 8 77 77 W 17 28 29.96 1015 10 16 N/A
4:15 pm 16:15 Cloudy 54 12 46 8 77 77 W 16 26 29.96 1015 10 16 N/A
4:35 pm 16:35 Cloudy 54 12 46 8 77 77 W 16 26 29.97 1015 10 16 N/A
4:55 pm 16:55 Cloudy 54 12 45 7 72 72 WSW 16 26 29.97 1015 10 16 N/A
5:15 pm 17:15 Cloudy 54 12 45 7 72 72 WSW 17 28 29.98 1015 10 16 N/A
5:35 pm 17:35 Cloudy 54 12 45 7 72 72 W 14 22 29.99 1016 10 16 N/A
5:55 pm 17:55 Cloudy 54 12 46 8 77 77 WSW 14 22 29.99 1016 10 16 N/A
6:15 pm 18:15 Cloudy 54 12 45 7 72 72 W 16 26 30.00 1016 10 16 N/A
6:35 pm 18:35 Cloudy 54 12 45 7 72 72 W 15 24 30.00 1016 10 16 N/A
6:55 pm 18:55 Cloudy 54 12 45 7 72 72 W 17 28 30.00 1016 10 16 N/A
7:15 pm 19:15 Cloudy 52 11 45 7 77 77 W 14 22 30.02 1016 10 16 N/A
7:35 pm 19:35 Cloudy 52 11 45 7 77 77 W 16 26 30.02 1016 10 16 N/A
7:55 pm 19:55 Cloudy 52 11 45 7 77 77 W 14 22 30.03 1017 10 16 N/A
8:15 pm 20:15 Cloudy 52 11 46 8 82 82 W 12 19 30.03 1017 10 16 N/A
8:35 pm 20:35 Cloudy 52 11 46 8 82 82 W 9 15 30.04 1017 10 16 N/A
8:55 pm 20:55 Cloudy 52 11 46 8 82 82 W 10 17 30.05 1018 10 16 N/A
9:15 pm 21:15 Cloudy 52 11 46 8 82 82 W 13 20 30.05 1018 10 16 N/A
9:35 pm 21:35 Cloudy 52 11 46 8 82 82 W 16 26 30.05 1018 10 16 N/A
9:55 pm 21:55 Cloudy 52 11 46 8 82 82 W 13 20 30.05 1018 10 16 N/A
10:15 pm 22:15 Cloudy 50 10 46 8 88 88 W 13 20 30.06 1018 10 16 N/A
10:35 pm 22:35 Cloudy 50 10 46 8 88 88 W 14 22 30.06 1018 10 16 N/A
10:55 pm 22:55 Cloudy 50 10 48 9 94 94 W 13 20 30.06 1018 10 16 N/A
11:15 pm 23:15 Cloudy 50 10 48 9 94 94 W 9 15 30.06 1018 10 16 N/A
11:35 pm 23:35 Cloudy 50 10 48 9 94 94 W 10 17 30.06 1018 10 16 N/A
11:55 pm 23:55 Cloudy 50 10 48 9 94 94 W 8 13 30.06 1018 10 16 N/A

Powered by AerisWeather